User: anonymous   Login
Location: Cluny
(50.9333°N, 112.8167°W)
Time: 00:23:27
(UTC-07:00)
Language:

Cosmos 1743 Rocket - Orbit

View from above orbital plane
View from above orbital plane
View from above satellite
View from above satellite

Ground track
Ground track

The orbit data is extracted from the following two-line orbital elements,

1 16720U 86034B   18018.52673226 +.00000060 +00000-0 +43082-5 0  9996
2 16720 082.5524 040.7363 0021715 109.7324 042.5084 14.83320756690095
Epoch (UTC): 18 January 2018 12:38:29
Eccentricity: 0.0021715
inclination: 82.5524°
perigee height: 603 km
apogee height: 634 km
right ascension of ascending node: 40.7363°
argument of perigee: 109.7324°
revolutions per day: 14.83320756
mean anomaly at epoch: 42.5084°
orbit number at epoch: 69009

The dashed part of the orbit path shows where the satellite is in the earth's shadow,  

DLR